Location: Colebrook
(42.0017°N, 73.0973°W)
Time: 15:55:27
(UTC-05:00)

Vanguard 2 - Pass Details

Date: 28 October 2021
Orbit: 554 x 2936 km, 32.9° (Epoch: 04 December)

Event Time Altitude Azimuth Distance (km) Brightness Sun altitude
Exits shadow 04:58:40 37° 217° (SW) 2,009 9.2 -26.9°
Maximum altitude 04:59:48 39° 201° (SSW) 1,876 9.2 -26.7°
Drops below altitude 10° 05:05:52 10° 134° (SE) 2,698 10.8 -25.5°
Sets 05:08:08 0° 125° (SE) 3,414 11.6 -25.1°
